Simultaneous Nadir Overpasses (SNOs) Predictions

Prediction of SNOs between METOP-A and TERRA Satellite Orbit:

Table of predicted SNOs for the next 14.0 days since TLE Epoch: 12/6/2015
Index Date (METOP-A) Time (METOP-A) Lat,Lon (METOP-A) SZA (METOP-A ) Date (TERRA) Time (TERRA) Lat,Lon (TERRA) SZA (TERRA ) Distance(km) Time Diff (sec)
1 12/08/2015 04:11:54 81.28, 163.80 106.77 12/08/2015 04:12:53 81.29, 163.81 106.80 0.27 59
2 12/08/2015 05:02:35 -81.28, -28.75 73.22 12/08/2015 05:02:20 -81.28, -28.63 73.22 2.21 15
3 12/10/2015 23:46:18 81.28,-130.01 106.98 12/10/2015 23:47:05 81.28,-129.84 107.02 2.85 47
4 12/11/2015 00:36:57 -81.29, 38.22 72.92 12/11/2015 00:36:31 -81.30, 38.12 72.94 1.80 26
5 12/13/2015 19:20:41 81.29, -63.08 107.22 12/13/2015 19:21:17 81.29, -63.17 107.23 1.71 36
6 12/
